Location: Laverne
(36.7100°N, 99.8930°W)
Time: 13:23:11
(UTC-06:00)

Daily predictions for brighter satellites

Satellite Brightness Start Highest point End
(mag) Time Altitude Azimuth Time Altitude Azimuth Time Altitude Azimuth
Okean 1 3.5 18:52:37 10° N 18:56:36 51° E 19:00:32 10° SSE
Cosmos 1812 2.7 18:52:57 10° N 18:56:50 87° E 19:00:40 10° S
Cosmos 1536 Rocket 3.8 18:56:26 10° N 19:00:47 48° E 19:05:06 10° SSE
ASTRO F (AKARI) 4.4 19:00:11 10° NNE 19:03:43 88° ESE 19:07:04 10° SSW
Cosmos 1818 4.0 18:59:25 10° SW 19:04:49 67° WNW 19:10:16 10° NNE
Cosmos 407 Rocket 4.0 19:00:29 10° SSW 19:05:40 65° WNW 19:10:58 10° NNE
Cosmos 2219 4.0 19:05:11 10° SSE 19:10:03 29° ESE 19:14:56 10° NE
Cosmos 676 Rocket 4.1 19:05:07 10° SSW 19:10:17 86° WNW 19:15:32 10° NNE
Cosmos 2360 Rocket 2.5 19:05:27 10° N 19:10:50 43° ENE 19:16:12 10° SE
Cosmos 2219 Rocket 4.0 19:09:59 10° NNE 19:11:57 12° NE 19:13:36 10° ENE
DNEPR-1 R/B 4.0 19:13:14 10° NW 19:17:24 63° WSW 19:21:41 10° SSE
Meteor 1-11 Rocket 3.9 19:14:21 10° S 19:19:58 57° E 19:25:44 10° NNE
BREEZE-M DEB (TANK) 2.8 19:16:37 10° SW 19:21:58 55° SE 19:23:46 18° ENE
Cosmos 1461 3.5 19:18:05 10° NW 19:22:02 57° WSW 19:26:06 10° SSE
Cosmos 1602 3.6 19:19:31 10° S 19:23:21 70° E 19:27:15 10° NNE
Cosmos 1140 Rocket 3.4 19:19:58 10° S 19:25:05 78° ESE 19:30:15 10° NNE
Resurs 01 Rocket 2.2 19:21:52 10° SE 19:25:50 34° ENE 19:29:48 10° N
Cosmos 1300 Rocket 3.5 19:22:16 10° S 19:26:39 72° E 19:31:04 10° NNE
DELTA 2 R/B (1) 3.6 19:21:26 10° WNW 19:27:05 89° NNE 19:31:31 17° ESE
Abrixas rocket 2.8 19:24:52 10° SSW 19:28:01 40° SE 19:29:39 23° E
ATLAS CENTAUR R/B 3.1 19:25:49 10° S 19:29:52 20° SE 19:30:47 18° ESE
Cosmos 614 Rocket 3.8 19:27:46 10° S 19:32:48 68° ESE 19:37:51 10° NNE
ALOS 2.3 19:30:07 10° SSE 19:34:41 59° ENE 19:39:17 10° N
FREGAT/IRIS 2.9 19:33:25 10° S 19:36:29 71° W 19:39:34 10° NNW
Spot 2 Rocket 3.6 19:35:52 10° SSE 19:40:43 50° ENE 19:45:37 10° N
Helios 1A 4.0 19:40:55 25° ENE 19:41:03 25° ENE 19:44:27 10° NNE
Cosmos 1340 3.1 19:39:08 10° NNW 19:42:54 65° W 19:46:38 10° S
Resurs 1-3 3.9 19:39:21 10° SE 19:43:30 44° ENE 19:47:41 10° N
Cosmos 2181 Rocket 4.0 19:38:21 10° N 19:44:39 89° E 19:51:00 10° S
Cosmos 2333 Rocket 3.6 19:42:10 10° N 19:46:07 19° NE 19:46:14 19° NE
Cosmos 2208 Rocket 4.3 19:41:30 10° N 19:46:44 45° ENE 19:50:30 18° SE
SL-16 R/B 4.0 19:42:30 10° NW 19:47:30 33° WSW 19:52:30 10° SSW
USA 229 DEB 4.4 19:44:58 10° NNW 19:51:31 37° NE 19:54:32 27° E
USA 229 4.4 19:45:04 10° NNW 19:51:37 37° NE 19:54:36 27° E
Cosmos 1850 Rocket 4.0 19:47:13 10° SSW 19:52:30 87° ESE 19:57:52 10° NNE
OTV 4 2.9 19:52:04 10° S 19:52:48 13° S 19:52:48 13° S
HJ-1C 3.5 19:51:28 10° S 19:54:49 74° W 19:58:12 10° NNW
Helios 1B rocket 2.8 19:54:33 32° ENE 19:55:48 41° E 19:59:43 10° S
Cosmos 2074 Rocket 3.9 19:50:31 10° S 19:56:41 67° E 20:02:55 10° NNE
Envisat 4.4 19:58:41 20° NE 19:58:41 20° NE 20:01:10 10° NNE
Tiangong 2 2.7 19:54:48 10° W 19:57:32 29° SSW 19:58:32 23° S
SJ-6B 4.1 19:54:15 10° S 19:58:05 43° W 20:01:53 10° NNW
Cosmos 2184 Rocket 3.9 19:53:28 10° S 19:59:43 68° E 20:05:57 10° NNE
FengYun 1-2 T 4.2 19:54:57 10° SSE 20:00:25 83° WSW 20:05:57 10° NNW
Okean 1 Rocket 3.6 19:57:11 10° SSW 20:01:36 60° W 20:06:03 10° N
Genesis I 3.3 19:59:12 10° NNW 20:03:03 53° ENE 20:03:08 53° ENE
SAR-Lupe-4 4.1 20:04:46 43° NNE 20:04:46 43° NNE 20:07:29 10° N
Hubble Space Telescope 2.8 20:04:23 10° SSW 20:06:47 16° S 20:06:47 16° S
Meteor 1-5 Rocket 4.2 20:01:15 10° S 20:07:13 75° E 20:13:07 10° NNE
FENGYUN 3A 3.9 20:02:07 10° S 20:07:29 69° WSW 20:12:55 10° NNW
Intercosmos 24 4.3 20:10:33 10° S 20:14:33 84° W 20:20:13 10° N
BREEZE-M DEB (TANK) 2.8 20:13:33 10° NW 20:16:29 61° NE 20:17:19 52° E
Gbstr 26 Del rocket 4.3 20:15:01 10° W 20:18:22 29° NNW 20:19:28 24° N
CZ-2D R/B 3.1 20:18:53 81° SSW 20:19:01 85° WSW 20:22:51 10° NNW
Cosmos 2322 4.4 20:14:55 10° NNW 20:20:29 54° WSW 20:25:59 10° S
GPS 2-04 Rocket1 3.0 20:16:53 10° WSW 20:21:00 63° S 20:21:00 63° S
Nadezhda 3 Rocket 4.3 20:16:16 10° N 20:21:26 42° ENE 20:21:26 42° ENE
Cosmos 1025 Rocket 3.1 20:19:19 10° N 20:23:42 77° W 20:25:45 31° S
H-2A R/B 3.5 20:21:38 18° S 20:24:11 49° W 20:27:50 10° NNW
Atlas Centaur 2 4.3 20:23:56 10° S 20:26:14 14° SSE 20:26:14 14° SSE
Cosmos 2154 Rocket 4.0 20:22:29 10° S 20:28:42 60° E 20:34:56 10° NNE
Cosmos 2285 Rocket 3.9 20:24:32 10° NNW 20:31:00 73° ENE 20:32:48 49° SE
Meteor 2-13 Rocket 4.3 20:27:51 10° S 20:33:54 86° E 20:40:01 10° N
COSMOS 2428 2.7 20:30:18 10° NNW 20:36:00 80° WSW 20:37:45 46° S
Cosmos 2333 4.1 20:31:33 10° NNW 20:37:19 89° WSW 20:38:23 62° SSE
Cosmos 2237 Rocket 3.5 20:34:44 10° N 20:37:44 26° NNE 20:37:44 26° NNE
NOSS 0 Rocket 4.3 20:47:39 10° NNW 20:52:27 52° NNE 20:52:27 52° NNE
Cosmos 2360 Rocket 4.4 20:50:10 10° NW 20:54:30 23° W 20:58:48 10° SSW
Cosmos 2219 Rocket 2.6 20:51:06 10° NNW 20:55:22 53° NNW 20:55:22 53° NNW
Cosmos 2227 Rocket 4.2 20:54:19 10° SSW 20:55:24 16° SSW 20:55:24 16° SSW
Resurs 01 Rocket 4.2 20:59:17 10° SW 21:02:21 19° W 21:05:27 10° NW
SL-16 R/B 4.5 21:08:34 10° N 21:09:14 13° N 21:09:14 13° N
Cosmos 2333 Rocket 3.6 21:25:08 10° NNW 21:28:17 33° NW 21:28:17 33° NW
